Columbus AFB, MS

10:19 AM CST on January 17, 2018 (GMT -0600)
Columbus Air Force Base

Weather History for KCBM - April, 2013

Change the Weather History Date:

Friday, April 5, 2013

  Actual Average Record
Temperature  
Mean Temperature 56 °F -  
Max Temperature 67 °F 70 °F 85 °F (2017)
Min Temperature 44 °F 49 °F 32 °F (2004)
Degree Days  
Heating Degree Days 10    
Growing Degree Days 6 (Base 50)    
Moisture  
Dew Point 46 °F    
Average Humidity 89    
Maximum Humidity 100    
Minimum Humidity 36    
Precipitation  
Precipitation 0.00 in - - ()
Sea Level Pressure  
Sea Level Pressure 30.07 in    
Wind  
Wind Speed 6 mph (NNW)    
Max Wind Speed 14 mph    
Max Gust Speed 18 mph    
Visibility 10 miles    
Events Rain    
Averages and records for this station are not official NWS values.
T = Trace of Precipitation, MM = Missing Value Source: NWS Daily Summary

Daily Weather History Graph

Daily Weather History Graph

Search for Another Location

Airport or City:

Trip Planner

Search our weather history database for the weather conditions in past years. The results will help you decide how hot, cold, wet, or windy it might be!

Date:

Astronomy

Apr. 05, 2013 Rise Set
Actual Time 6:35 AM CDT 7:17 PM CDT
Civil Twilight 6:10 AM CDT 7:42 PM CDT
Nautical Twilight 5:40 AM CDT 8:12 PM CDT
Astronomical Twilight 5:10 AM CDT 8:42 PM CDT
Moon 3:29 AM CDT (4/5) 2:53 PM CDT (4/5)
Length of Visible Light 13h 32m
Length of Day
12h 41m
Waning Crescent, 23% of the Moon is Illuminated
Apr 5
Waning Crescent
Apr 10
New
Apr 18
First Quarter
Apr 25
Full
May 2
Last Quarter

Hourly Weather History & Observations

Time (CDT) Temp. Windchill Dew Point Humidity Pressure Visibility Wind Dir Wind Speed Gust Speed Precip Events Conditions
12:13 AM 48.2 °F - 48.2 °F 100% 30.00 in 10.0 mi NNE 4.6 mph - N/A   Overcast
12:23 AM 48.2 °F - 48.2 °F 100% 30.00 in 10.0 mi North 5.8 mph - N/A   Overcast
12:28 AM 48.2 °F - 48.2 °F 100% 30.00 in 10.0 mi North 5.8 mph - N/A   Overcast
12:33 AM 48.2 °F - 48.2 °F 100% 30.00 in 10.0 mi North 5.8 mph - N/A   Overcast
12:58 AM 47.7 °F - 47.5 °F 99% 30.02 in 10.0 mi North 5.8 mph - N/A   Overcast
1:03 AM 48.2 °F - 48.2 °F 100% 30.01 in 10.0 mi North 5.8 mph - N/A   Overcast
1:13 AM 48.2 °F - 48.2 °F 100% 30.01 in 10.0 mi North 4.6 mph - N/A   Overcast
1:23 AM 48.2 °F - 48.2 °F 100% 30.02 in 10.0 mi North 5.8 mph - N/A   Overcast
1:33 AM 48.2 °F - 48.2 °F 100% 30.02 in 10.0 mi NNE 4.6 mph - N/A   Overcast
1:58 AM 47.7 °F - 47.5 °F 99% 30.03 in 10.0 mi North 5.8 mph - N/A   Overcast
2:18 AM 48.2 °F - 48.2 °F 100% 30.03 in 10.0 mi North 3.5 mph - N/A   Overcast
2:23 AM 48.2 °F - 48.2 °F 100% 30.03 in 10.0 mi North 3.5 mph - N/A   Overcast
2:32 AM 48.2 °F - 46.4 °F 93% 30.03 in 10.0 mi NNW 4.6 mph - N/A   Overcast
2:42 AM 48.2 °F - 46.4 °F 93% 30.03 in 10.0 mi North 6.9 mph - N/A   Overcast
2:52 AM 48.2 °F - 46.4 °F 93% 30.04 in 10.0 mi North 8.1 mph - N/A   Overcast
2:58 AM 47.5 °F - 46.6 °F 97% 30.05 in 10.0 mi North 8.1 mph - N/A   Overcast
3:03 AM 48.2 °F - 46.4 °F 93% 30.04 in 10.0 mi North 9.2 mph - N/A   Overcast
3:12 AM 48.2 °F - 46.4 °F 93% 30.04 in 10.0 mi NNW 8.1 mph - N/A Rain Light Rain
3:23 AM 46.4 °F 42.4 °F 46.4 °F 100% 30.04 in 10.0 mi North 8.1 mph - N/A   Overcast
3:43 AM 46.4 °F 42.9 °F 46.4 °F 100% 30.04 in 10.0 mi North 6.9 mph - N/A   Overcast
3:53 AM 46.4 °F 41.9 °F 46.4 °F 100% 30.05 in 10.0 mi North 9.2 mph - N/A   Overcast
3:54 AM 46.4 °F 41.5 °F 46.4 °F 100% 30.05 in 10.0 mi NNW 10.4 mph - N/A Rain Light Rain
3:58 AM 46.4 °F 42.4 °F 46.4 °F 100% 30.06 in 10.0 mi NNW 8.1 mph - 0.00 in Rain Light Rain
4:03 AM 46.4 °F 41.9 °F 46.4 °F 100% 30.05 in 10.0 mi North 9.2 mph - N/A Rain Light Rain
4:04 AM 46.4 °F 41.9 °F 46.4 °F 100% 30.05 in 10.0 mi North 9.2 mph - N/A   Overcast
4:19 AM 46.4 °F 42.4 °F 46.4 °F 100% 30.05 in 10.0 mi North 8.1 mph - N/A   Overcast
4:54 AM 46.4 °F 42.9 °F 46.4 °F 100% 30.06 in 10.0 mi North 6.9 mph - N/A   Overcast
4:58 AM 46.6 °F - 45.9 °F 97% 30.07 in 10.0 mi North 6.9 mph - 0.00 in   Overcast
5:03 AM 46.4 °F 42.9 °F 46.4 °F 100% 30.07 in 10.0 mi North 6.9 mph - N/A   Overcast
5:08 AM 46.4 °F 42.4 °F 46.4 °F 100% 30.06 in 10.0 mi North 8.1 mph - N/A   Overcast
5:13 AM 46.4 °F 42.9 °F 46.4 °F 100% 30.07 in 10.0 mi North 6.9 mph - N/A   Overcast
5:23 AM 46.4 °F 43.5 °F 46.4 °F 100% 30.07 in 10.0 mi North 5.8 mph - N/A   Overcast
5:28 AM 46.4 °F 43.5 °F 46.4 °F 100% 30.07 in 10.0 mi NNW 5.8 mph - N/A   Overcast
5:33 AM 46.4 °F 43.5 °F 46.4 °F 100% 30.07 in 10.0 mi North 5.8 mph - N/A   Overcast
5:38 AM 46.4 °F 44.3 °F 46.4 °F 100% 30.07 in 10.0 mi North 4.6 mph - N/A   Overcast
5:48 AM 46.4 °F 44.3 °F 46.4 °F 100% 30.08 in 10.0 mi North 4.6 mph - N/A   Overcast
5:58 AM 46.4 °F 43.5 °F 45.9 °F 98% 30.09 in 10.0 mi NNW 5.8 mph - N/A   Mostly Cloudy
6:13 AM 46.4 °F 43.5 °F 46.4 °F 100% 30.09 in 10.0 mi North 5.8 mph - N/A   Overcast
6:23 AM 46.4 °F 44.3 °F 46.4 °F 100% 30.09 in 10.0 mi NNW 4.6 mph - N/A   Overcast
6:43 AM 46.4 °F 42.9 °F 46.4 °F 100% 30.09 in 10.0 mi NW 6.9 mph - N/A   Overcast
6:53 AM 46.4 °F 42.9 °F 46.4 °F 100% 30.09 in 10.0 mi NW 6.9 mph - N/A   Overcast
6:58 AM 46.6 °F - 46.4 °F 99% 30.11 in 10.0 mi NNW 8.1 mph - N/A   Overcast
7:18 AM 46.4 °F 42.4 °F 46.4 °F 100% 30.10 in 10.0 mi NNW 8.1 mph - N/A   Overcast
7:58 AM 47.5 °F - 46.9 °F 98% 30.13 in 10.0 mi NNW 11.5 mph - N/A   Overcast
8:28 AM 48.2 °F - 46.4 °F 93% 30.13 in 10.0 mi North 10.4 mph - N/A   Overcast
8:58 AM 48.2 °F - 46.6 °F 94% 30.14 in 10.0 mi NNW 6.9 mph - N/A   Overcast
9:43 AM 50.0 °F - 46.4 °F 87% 30.14 in 10.0 mi North 8.1 mph - N/A   Overcast
9:58 AM 50.4 °F - 46.2 °F 86% 30.15 in 10.0 mi North 5.8 mph - N/A   Overcast
10:08 AM 50.0 °F - 46.4 °F 87% 30.15 in 10.0 mi North 8.1 mph - N/A   Overcast
10:58 AM 53.6 °F - 46.8 °F 78% 30.17 in 10.0 mi NNW 13.8 mph - N/A   Overcast
11:26 AM 55.4 °F - 46.4 °F 72% 30.16 in 10.0 mi NW 8.1 mph - N/A   Scattered Clouds
11:58 AM 57.0 °F - 45.0 °F 64% 30.16 in 10.0 mi NW 8.1 mph - N/A   Partly Cloudy
12:58 PM 59.5 °F - 41.4 °F 51% 30.13 in 10.0 mi Variable 4.6 mph - N/A   Clear
1:58 PM 62.6 °F - 39.4 °F 42% 30.11 in 10.0 mi NW 11.5 mph - N/A   Clear
2:58 PM 64.6 °F - 37.8 °F 37% 30.10 in 10.0 mi WNW 10.4 mph 18.4 mph N/A   Clear
3:58 PM 66.9 °F - 39.0 °F 36% 30.09 in 10.0 mi NNW 9.2 mph - N/A   Clear
4:58 PM 66.2 °F - 38.7 °F 36% 30.09 in 10.0 mi NNW 8.1 mph - N/A   Clear
5:58 PM 66.0 °F - 38.1 °F 36% 30.08 in 10.0 mi NW 6.9 mph - N/A   Clear
6:58 PM 63.0 °F - 37.8 °F 39% 30.08 in 10.0 mi NNW 5.8 mph - N/A   Clear
7:58 PM 56.8 °F - 39.2 °F 52% 30.10 in 10.0 mi WNW 4.6 mph - N/A   Clear
8:58 PM 51.1 °F - 44.1 °F 77% 30.12 in 10.0 mi Calm Calm - N/A   Clear
9:58 PM 47.5 °F - 45.1 °F 92% 30.13 in 10.0 mi Calm Calm - N/A   Clear
10:58 PM 45.9 °F - 45.0 °F 97% 30.13 in 10.0 mi Calm Calm - N/A   Clear
11:58 PM 44.4 °F - 43.3 °F 96% 30.13 in 10.0 mi Calm Calm - N/A   Clear